OE5RPP Weather Reports


time (UTC)temp
C
wind
direction
speed
KPH
gust
KPH
rain 1hr
cm
rain 24hr
cm
rain mn
cm
humidity
%
barometer
mb
20260507181159 12 225 9.7 6.4 0.00 0.00 0.00 48 1017.9
20260507180158 12 202 3.2 4.8 0.00 0.00 0.00 46 1017.9
20260507175158 12 180 6.4 4.8 0.00 0.00 0.00 46 1017.9
20260507174159 12 180 3.2 4.8 0.00 0.00 0.00 42 1016.9
20260507173158 12 202 4.8 6.4 0.00 0.00 0.00 41 1016.9
20260507172158 13 202 8.0 6.4 0.00 0.00 0.00 40 1016.9
20260507171158 13 157 6.4 4.8 0.00 0.00 0.00 36 1016.9
20260507170159 14 157 1.6 1.6 0.00 0.00 0.00 34 1016.9
20260507165158 15 180 8.0 8.0 0.00 0.00 0.00 34 1016.9
20260507164157 15 180 8.0 0.0 0.00 0.00 0.00 34 1016.9
20260507163158 15 202 9.7 11.3 0.00 0.00 0.00 39 1016.9
20260507162158 15 157 11.3 16.1 0.00 0.00 0.00 39 1016.9
20260507161159 15 247 6.4 6.4 0.00 0.00 0.00 37 1016.9
20260507160158 15 202 6.4 6.4 0.00 0.00 0.00 45 1016.9
20260507155158 14 180 9.7 6.4 0.00 0.00 0.00 41 1016.9
20260507154157 14 202 6.4 3.2 0.00 0.00 0.00 40 1016.9
20260507153158 14 157 6.4 4.8 0.00 0.00 0.00 39 1016.9
20260507152158 15 247 4.8 4.8 0.00 0.00 0.00 39 1016.9
20260507151159 15 180 8.0 4.8 0.00 0.00 0.00 40 1016.9
20260507150158 14 180 4.8 4.8 0.00 0.00 0.00 41 1016.9
20260507145158 13 202 3.2 6.4 0.00 0.00 0.00 40 1016.9
20260507144159 13 180 1.6 0.0 0.00 0.00 0.00 39 1016.9
20260507143158 12 180 9.7 8.0 0.00 0.00 0.00 37 1016.9
20260507142158 12 202 9.7 6.4 0.00 0.00 0.00 37 1016.9
20260507141157 12 292 9.7 9.7 0.00 0.00 0.00 35 1016.9
20260507140159 14 270 12.9 12.9 0.00 0.00 0.00 23 1016.9
20260507135159 16 292 8.0 12.9 0.00 0.00 0.00 22 1016.9
20260507134158 17 225 3.2 0.0 0.00 0.00 0.00 21 1016.9
20260507133157 17 225 6.4 9.7 0.00 0.00 0.00 21 1016.9
20260507132159 17 247 6.4 4.8 0.00 0.00 0.00 21 1016.9
20260507131159 16 180 6.4 4.8 0.00 0.00 0.00 22 1016.9
20260507130158 16 270 3.2 6.4 0.00 0.00 0.00 22 1016.9
20260507125158 15 247 8.0 6.4 0.00 0.00 0.00 22 1016.9
20260507124157 15 270 6.4 6.4 0.00 0.00 0.00 22 1016.9
20260507123159 14 270 8.0 8.0 0.00 0.00 0.00 23 1016.9
20260507122159 14 247 9.7 8.0 0.00 0.00 0.00 23 1016.9
20260507121159 15 270 9.7 8.0 0.00 0.00 0.00 22 1016.9
20260507120158 15 247 8.0 8.0 0.00 0.00 0.00 22 1016.9
20260507115158 16 270 11.3 11.3 0.00 0.00 0.00 22 1016.9
20260507114159 16 180 3.2 0.0 0.00 0.00 0.00 22 1016.9
20260507113158 16 247 14.5 17.7 0.00 0.00 0.00 22 1016.9
20260507112156 16 247 6.4 8.0 0.00 0.00 0.00 22 1016.9
20260507111158 16 270 6.4 4.8 0.00 0.00 0.00 22 1016.9
20260507110157 15 225 8.0 9.7 0.00 0.00 0.00 22 1016.9
20260507105157 15 292 9.7 4.8 0.00 0.00 0.00 22 1016.9
20260507104156 15 270 9.7 8.0 0.00 0.00 0.00 22 1016.9
20260507103158 14 315 8.0 11.3 0.00 0.00 0.00 23 1016.9
20260507102131 15 270 9.7 4.8 0.00 0.00 0.00 22 1016.9
20260507101131 14 270 3.2 4.8 0.00 0.00 0.00 23 1016.9
20260507100136 14 292 9.7 9.7 0.00 0.00 0.00 23 1016.9
20260507095132 15 180 6.4 6.4 0.00 0.00 0.00 22 1016.9
20260507094136 14 0 6.4 6.4 0.00 0.00 0.00 23 1016.9
20260507093131 13 247 14.5 6.4 0.00 0.00 0.00 23 1016.9
20260507092136 14 225 8.0 8.0 0.00 0.00 0.00 23 1016.9
20260507090132 13 270 9.7 4.8 0.00 0.00 0.00 23 1016.9
20260507085136 14 180 6.4 8.0 0.00 0.00 0.00 23 1016.9
20260507081135 14 292 4.8 4.8 0.00 0.00 0.00 23 1015.9
20260507074133 14 180 1.6 0.0 0.00 0.00 0.00 30 1015.9
20260507073133 14 202 8.0 9.7 0.00 0.00 0.00 32 1015.9
20260507072132 13 270 3.2 0.0 0.00 0.00 0.00 32 1015.9
20260507070131 10 180 6.4 8.0 0.00 0.41 0.00 60 1015.9
20260507063136 10 180 6.4 8.0 0.00 0.41 0.00 60 1015.9
20260507062134 10 180 6.4 8.0 0.00 0.41 0.00 60 1015.9
20260507060136 10 180 6.4 8.0 0.00 0.41 0.00 60 1015.9
20260507055132 10 180 6.4 8.0 0.00 0.41 0.00 60 1015.9
20260507052131 10 180 6.4 8.0 0.00 0.41 0.00 60 1015.9
20260507051136 10 180 8.0 6.4 0.00 0.41 0.00 60 1015.9
20260507050131 10 157 6.4 6.4 0.00 0.41 0.00 60 1014.9
20260507044130 10 180 0.0 0.0 0.00 0.41 0.00 60 1014.9
20260507043135 9 180 6.4 6.4 0.00 0.41 0.00 61 1014.9
20260507040132 9 180 9.7 8.0 0.00 0.41 0.00 62 1014.9
20260507035131 9 157 4.8 6.4 0.00 0.41 0.00 62 1014.9
20260507034134 9 180 8.0 9.7 0.00 0.41 0.00 63 1014.9
20260507033132 9 135 9.7 6.4 0.00 0.41 0.00 62 1014.9
20260507030131 8 202 6.4 8.0 0.00 0.41 0.00 63 1013.9
20260507025132 8 180 6.4 6.4 0.00 0.41 0.00 62 1013.9
20260507024132 8 180 9.7 8.0 0.00 0.41 0.00 62 1013.9
20260507022131 9 157 9.7 11.3 0.00 0.41 0.00 63 1013.9
20260507020136 8 157 9.7 9.7 0.00 0.41 0.00 62 1013.9
20260507015131 8 157 8.0 8.0 0.00 0.41 0.00 62 1013.9
20260507014131 9 157 0.0 0.0 0.00 0.41 0.00 62 1013.9
20260507012136 9 180 8.0 8.0 0.00 0.41 0.00 62 1013.9
20260507011131 9 157 6.4 6.4 0.00 0.41 0.00 62 1013.9
20260507010130 9 202 6.4 6.4 0.00 0.41 0.00 62 1013.9
20260507004136 9 225 4.8 6.4 0.00 0.41 0.00 62 1013.9
20260507003131 9 157 14.5 16.1 0.00 0.41 0.00 61 1013.9
20260507001132 9 180 8.0 8.0 0.00 0.41 0.00 61 1013.9
20260506234135 10 180 4.8 6.4 0.00 0.41 0.00 60 1013.9
20260506232131 10 157 8.0 6.4 0.00 0.41 0.00 60 1013.9
20260506230137 10 180 8.0 9.7 0.00 0.41 0.00 59 1013.9
20260506224132 10 180 8.0 4.8 0.00 0.41 0.00 59 1013.9
20260506222132 10 157 4.8 8.0 0.00 0.41 0.00 59 1013.9
20260506221132 10 180 6.4 6.4 0.00 0.41 0.00 58 1012.9
20260506220131 10 180 9.7 9.7 0.00 0.41 0.00 58 1012.9
20260506212135 10 180 6.4 6.4 0.00 0.30 0.30 58 1012.9
20260506211131 10 225 3.2 4.8 0.00 0.30 0.30 57 1012.9
20260506204132 11 247 8.0 11.3 0.00 0.20 0.20 57 1012.9
20260506202136 11 270 12.9 12.9 0.00 0.20 0.20 58 1012.9
20260506195132 11 180 17.7 19.3 0.20 0.20 0.20 60 1011.9
20260506194131 12 225 11.3 14.5 0.20 0.20 0.20 59 1011.9
20260506193131 12 247 14.5 19.3 0.10 0.10 0.10 59 1011.9
20260506190136 12 270 6.4 6.4 0.00 0.00 0.00 51 1010.9
20260506185131 13 247 8.0 8.0 0.00 0.00 0.00 48 1010.9
20260506183135 13 180 9.7 6.4 0.00 0.00 0.00 40 1009.9
20260506182132 14 225 6.4 4.8 0.00 0.00 0.00 39 1009.9